Regional Weather Roundup
Issued by NWS

Home | Current Version | Previous Version | Graphics & Text | Print | Product List | Glossary On
Versions: 1 2 3 4 5 6 7 8 9 10 11 12 13 14 15 16 17 18 19 20 21 22 23 24 25 26 27
000
ASUS45 KBOI 181710
RWRID

IDAHO REGIONAL WEATHER ROUNDUP
NATIONAL WEATHER SERVICE BOISE ID
1000 AM MST MON DEC 18 2017

NOTE: "FAIR" INDICATES FEW OR NO CLOUDS BELOW 12000 FEET
WITH NO SIGNIFICANT WEATHER AND/OR OBSTRUCTIONS TO VISIBILITY

IDZ012-014-181800-
SOUTHWEST IDAHO


CITY           SKY/WX    TMP DP  RH WIND       PRES   REMARKS
BOISE          MOSUNNY   32  26  78 CALM      30.22R
CALDWELL       MOSUNNY   32  26  78 CALM      30.26R
MOUNTAIN HOME  PTSUNNY   35  29  80 E13       30.21R WCI  26
$$

IDZ016-017-181800-
SOUTHCENTRAL IDAHO


CITY           SKY/WX    TMP DP  RH WIND       PRES   REMARKS
BURLEY         CLOUDY    36  19  50 S10       30.20R WCI  28
JEROME         MOSUNNY   35  21  56 S7        30.21R WCI  29
TWIN FALLS     CLOUDY    33  21  61 E5        30.21R WCI  29
$$

IDZ019>023-181800-
SOUTHEAST IDAHO


CITY           SKY/WX    TMP DP  RH WIND       PRES   REMARKS
IDAHO FALLS    CLOUDY    28  23  81 CALM      30.21R
POCATELLO      CLOUDY    35  25  66 SW8       30.20S WCI  29
REXBURG        CLOUDY    25  20  81 CALM      30.20S
$$

IDZ006-010-011-018-031-032-181800-
CENTRAL IDAHO MOUNTAINS


CITY           SKY/WX    TMP DP  RH WIND       PRES   REMARKS
MCCALL         CLOUDY    28  26  92 CALM      30.12S
HAILEY         PTSUNNY   23  18  80 NW5       30.19S WCI  17
STANLEY          N/A     30  24  78 CALM      30.12R
SALMON         CLOUDY    24  18  77 CALM      30.08R
CHALLIS        CLOUDY    25  17  72 CALM      30.06S
$$

IDZ002-004-006-007-026-181800-
NORTHERN IDAHO


CITY           SKY/WX    TMP DP  RH WIND       PRES   REMARKS
LEWISTON       CLOUDY    47  31  53 S8        30.00R
LOWELL           N/A     33  31  92 CALM      30.12R
COEUR D`ALENE  CLOUDY    38  36  92 CALM      29.94R
MULLAN PASS    SNOW      30  27  88 CALM      29.85R VSB 1/4
$$




USA.gov is the U.S. government's official web portal to all federal, state and local government web resources and services.